sat.trackr.live / text

‹ back to catalog

IRIDIUM 143

NORAD 43258 · 2018-030K

PAYLOAD ACTIVE UNKNOWN

§ Identity

Operator
Country
US
Launch date
2018-03-30
Launch site
AFWTR
Launch vehicle
Mass (kg)
RCS (m²)

Purposes: comms

External: N2YO · Heavens-Above · Gunter

§ Orbital elements

Epoch: 2026-09-20T00:20:35.189088Z

Period
100.40 min
Inclination
86.3920°
Eccentricity
0.0002206
Mean motion
14.34217343 rev/d
Perigee alt
776.1 km
Apogee alt
779.2 km
Semi-major
7,155.8 km
B*
7.7612e-6
RAAN
250.8948°
Arg perigee
85.2752°
Mean anomaly
274.8695°
Rev number
44,368

§ Raw data

IRIDIUM 1431 43258U 18030K   26263.01429617  .00000042  00000+0  77612-5 0  99962 43258  86.3920 250.8948 0002206  85.2752 274.8695 14.34217343443685

JSON: /api/v1/satellites/43258 · /tle

For live sub-satellite position, see the globe view (requires WebGL).

§ Visibility from observer

Set your observer location to see the next 7 days of passes ≥ 10°. The values pass through the URL so the page stays shareable.

No JS? Fill the form by hand. The geolocation button needs JavaScript.